STARLINK-1651 (46366 NORAD) Tracking and Keplerian Element Data

This shows tracking and keplerian element data for the satellite.

Feedback or suggestion? Click here.




ElementValue
Catalog46366
NameSTARLINK-1651
Epoch Orbit178
Epoch Day268.91668981
Epoch Year2020
RAAN324.4575
Inclination53.0006
Eccentricity0.0001285
Argument of Perigee63.0567
Mean Anonmoly166.1772
Mean Motion15.62807942
Decay Rate-0.00077909
L11 46366U 20062AT 20268.91668981 -.00077909 00000-0 -85133-3 0 9998
L22 46366 53.0006 324.4575 0001285 63.0567 166.1772 15.62807942 1784

Live tracking and technical data element details for STARLINK-1651 (NORAD 46366). STARLINK-1651 can be tracked NOW for your location showing map with azimuth and elevation plus other details from your city location.

Track the satellite on the map from your city or location and see movement details for azimuth, elevation, latitude, longitude, range, height, and movement on the map or in text.







IsCatalogInMostPopularTable: catalog: 46366, numindb: 2
Update: records affected: 1



GetName: 46366 STARLINK-1651

Hit Count: updated at: Mon, 28 Sep 2020 15:37:08 GMT